EW5383 Weather Reports


Display with metric or nautical units.
time (UTC)temp
F
wind
direction
speed
MPH
gust
MPH
rain 1hr
in
rain 24hr
in
rain mn
in
humidity
%
barometer
mb
20260905201508 95 8 0.0 0.0 0.00 0.00 0.00 59 1012.5
20260905200000 95 29 0.0 0.0 0.00 0.00 0.00 58 1012.7
20260905194608 95 304 0.0 1.0 0.00 0.00 0.00 59 1012.9
20260905193052 96 233 0.0 1.0 0.00 0.00 0.00 59 1013.0
20260905191553 95 352 0.0 0.0 0.00 0.00 0.00 59 1013.1
20260905190043 96 18 0.0 0.0 0.00 0.00 0.00 59 1013.3
20260905184554 96 228 0.0 1.0 0.00 0.00 0.00 58 1013.4
20260905183043 95 65 0.0 1.0 0.00 0.00 0.00 59 1013.3
20260905181535 96 60 0.0 0.0 0.00 0.00 0.00 59 1013.5
20260905180032 96 353 0.0 0.0 0.00 0.00 0.00 59 1013.6
20260905174521 97 114 0.0 0.0 0.00 0.00 0.00 59 1013.6
20260905173019 96 240 0.0 1.0 0.00 0.00 0.00 59 1013.8
20260905171518 95 62 0.0 1.0 0.00 0.00 0.00 59 1014.2
20260905170014 96 60 0.0 0.0 0.00 0.00 0.00 59 1014.4
20260905164510 95 285 0.0 1.0 0.00 0.00 0.00 59 1014.5
20260905163005 95 86 0.0 0.0 0.00 0.00 0.00 59 1014.5
20260905161602 95 354 0.0 1.0 0.00 0.00 0.00 59 1014.7
20260905160056 95 233 0.0 0.0 0.00 0.00 0.00 58 1014.9
20260905154612 94 23 0.0 0.0 0.00 0.00 0.00 59 1014.9
20260905153048 94 54 0.0 1.0 0.00 0.00 0.00 58 1014.9
20260905151544 93 354 0.0 0.0 0.00 0.00 0.00 55 1014.9
20260905150040 93 80 0.0 0.0 0.00 0.00 0.00 55 1014.8
20260905144536 92 4 0.0 0.0 0.00 0.00 0.00 53 1014.8
20260905143030 92 200 0.0 0.0 0.00 0.00 0.00 43 1014.7
20260905141528 92 200 0.0 0.0 0.00 0.00 0.00 42 1014.6
20260905140025 92 205 0.0 0.0 0.00 0.00 0.00 23 1014.7
20260905134517 91 283 0.0 0.0 0.00 0.00 0.00 2 1014.7
20260905133019 90 283 0.0 0.0 0.00 0.00 0.00 1 1014.7
20260905131508 90 265 0.0 0.0 0.00 0.00 0.00 1 1014.8
20260905130006 88 44 0.0 0.0 0.00 0.00 0.00 1 1014.8
20260905124600 86 44 0.0 0.0 0.00 0.00 0.00 1 1014.7
20260905123058 84 44 0.0 0.0 0.00 0.00 0.00 1 1014.6
20260905121555 82 53 0.0 0.0 0.00 0.00 0.00 1 1014.6
20260905120048 79 53 0.0 0.0 0.00 0.00 0.00 1 1014.6
20260905114542 78 53 0.0 0.0 0.00 0.00 0.00 1 1014.5
20260905113047 0 0.0 0.0 0.00 0.00 0.00 1014.3
20260905111553 0 0.0 0.0 0.00 0.00 0.00 1014.2
20260905110038 0 0.0 0.0 0.00 0.00 0.00 1014.1
20260905104527 0 0.0 0.0 0.00 0.00 0.00 1014.1
20260905103020 0 0.0 0.0 0.00 0.00 0.00 1014.0
20260905101516 0 0.0 0.0 0.00 0.00 0.00 1013.9
20260905100011 0 0.0 0.0 0.00 0.00 0.00 1013.7
20260905094507 0 0.0 0.0 0.00 0.00 0.00 1013.7
20260905093003 0 0.0 0.0 0.00 0.00 0.00 1013.7
20260905091600 0 0.0 0.0 0.00 0.00 0.00 1013.5
20260905090054 0 0.0 0.0 0.00 0.00 0.00 1013.6
20260905084556 0 0.0 0.0 0.00 0.00 0.00 1013.4
20260905083045 0 0.0 0.0 0.00 0.00 0.00 1013.5
20260905081541 0 0.0 0.0 0.00 0.00 0.00 1013.5
20260905080048 0 0.0 0.0 0.00 0.00 0.00 1013.5
20260905074537 0 0.0 0.0 0.00 0.00 0.00 1013.6
20260905073028 0 0.0 0.0 0.00 0.00 0.00 1013.5
20260905071526 0 0.0 0.0 0.00 0.00 0.00 1013.7
20260905070019 0 0.0 0.0 0.00 0.00 0.00 1013.6
20260905064516 0 0.0 0.0 0.00 0.00 0.00 1013.9
20260905063011 0 0.0 0.0 0.00 0.00 0.00 1014.0
20260905061509 0 0.0 0.0 0.00 0.00 0.00 1014.0
20260905060002 0 0.0 0.0 0.00 0.00 0.00 1014.1
20260905054558 0 0.0 0.0 0.00 0.00 0.00 1014.3
20260905053103 0 0.0 0.0 0.00 0.00 0.00 1014.3
20260905051552 0 0.0 0.0 0.00 0.00 0.00 1014.5
20260905050045 0 0.0 0.0 0.00 0.00 0.00 1014.6
20260905044542 0 0.0 0.0 0.00 0.00 0.00 1014.8
20260905043046 0 0.0 0.0 0.00 0.00 0.00 1014.7
20260905041532 0 0.0 0.0 0.00 0.00 0.00 1014.7
20260905040032 0 0.0 0.0 0.00 0.00 0.00 1014.8
20260905034525 0 0.0 0.0 0.00 0.00 0.00 1014.7
20260905033045 0 0.0 0.0 0.00 0.00 0.00 1014.8
20260905031515 0 0.0 0.0 0.00 0.00 0.00 1015.0
20260905030014 0 0.0 0.0 0.00 0.00 0.00 1015.2
20260905024507 0 0.0 0.0 0.00 0.00 0.00 1015.2
20260905023001 82 134 0.0 0.0 0.00 0.00 0.00 1 1015.1
20260905021559 83 139 0.0 0.0 0.00 0.00 0.00 1 1015.1
20260905020052 83 139 0.0 0.0 0.00 0.00 0.00 1 1015.0
20260905014551 83 139 0.0 0.0 0.00 0.00 0.00 1 1014.9
20260905013044 84 139 0.0 0.0 0.00 0.00 0.00 1 1015.0
20260905011541 84 139 0.0 0.0 0.00 0.00 0.00 1 1015.0
20260905010041 84 139 0.0 0.0 0.00 0.00 0.00 1 1014.8
20260905004531 84 139 0.0 0.0 0.00 0.00 0.00 1 1014.8
20260905003026 85 139 0.0 0.0 0.00 0.00 0.00 1 1014.7
20260905001524 85 139 0.0 0.0 0.00 0.00 0.00 1 1014.5
20260905000017 86 139 0.0 0.0 0.00 0.00 0.00 1 1014.5
20260904234512 86 148 0.0 0.0 0.00 0.02 0.00 1 1014.3
20260904233008 87 149 0.0 0.0 0.00 0.02 0.00 28 1014.1
20260904231508 88 248 0.0 0.0 0.00 0.02 0.00 45 1014.1
20260904230113 88 314 0.0 0.0 0.00 0.02 0.00 51 1013.9
20260904224556 89 32 0.0 0.0 0.00 0.16 0.00 54 1013.8
20260904223053 89 11 0.0 0.0 0.00 0.16 0.00 58 1013.9
20260904221547 91 3 0.0 0.0 0.00 0.16 0.00 61 1013.7
20260904220045 92 185 0.0 0.0 0.00 0.16 0.00 61 1013.6
20260904214538 94 167 0.0 0.0 0.00 0.16 0.00 60 1013.6
20260904213033 94 217 0.0 1.0 0.00 0.16 0.00 60 1013.7
20260904211529 95 11 0.0 1.0 0.00 0.16 0.00 58 1013.6
20260904210026 95 40 0.0 0.0 0.00 0.16 0.00 59 1013.4
20260904204531 96 12 0.0 0.0 0.00 0.16 0.00 59 1013.4
20260904203026 96 73 0.0 1.0 0.00 0.16 0.00 58 1013.7